Location: Katwijk
(52.2000°N, 4.4170°E)
Time: 20:40:11
(UTC+02:00)

ISS - Visible Passes

Search period start: 27 July 2017 00:00
Search period end: 06 August 2017 00:00
Orbit: 400 x 408 km, 51.6° (Epoch: 28 July)

Date Brightness Start Highest point End Pass type
(mag) Time Alt. Az. Time Alt. Az. Time Alt. Az.
27 Jul -3.9 01:34:55 10° W 01:37:53 65° SW 01:37:53 65° SW visible
27 Jul -3.9 23:06:16 10° WSW 23:09:28 63° SSE 23:12:42 10° E visible
28 Jul -4.0 00:42:38 10° W 00:45:53 80° S 00:46:57 40° ESE visible
28 Jul -1.4 02:19:09 10° W 02:19:34 13° W 02:19:34 13° W visible
28 Jul -4.0 23:50:21 10° W 23:53:36 83° S 23:56:09 16° E visible
29 Jul -2.6 01:26:49 10° W 01:28:46 31° WSW 01:28:46 31° WSW visible
29 Jul -3.9 22:58:03 10° W 23:01:18 79° S 23:04:34 10° E visible
30 Jul -3.9 00:34:30 10° W 00:37:44 66° SSW 00:38:01 61° SSE visible
30 Jul -4.0 23:42:10 10° W 23:45:26 78° S 23:47:17 23° ESE visible
31 Jul -1.8 01:18:43 10° W 01:19:54 19° W 01:19:54 19° W visible
31 Jul -3.9 22:49:50 10° W 22:53:06 83° S 22:56:22 10° E visible
01 Aug -3.4 00:26:20 10° W 00:29:12 44° SW 00:29:12 44° SW visible
01 Aug -3.8 23:33:57 10° W 23:37:11 61° SSW 23:38:31 31° SE visible
02 Aug -1.2 01:10:47 10° W 01:11:08 12° W 01:11:08 12° W visible
02 Aug -3.9 22:41:36 10° W 22:44:51 74° S 22:47:51 12° ESE visible
03 Aug -2.5 00:18:11 10° W 00:20:28 27° SW 00:20:28 27° SW visible
03 Aug -3.3 23:25:43 10° W 23:28:49 41° SSW 23:29:49 31° SSE visible
04 Aug -3.6 22:33:18 10° W 22:36:30 56° SSW 22:39:10 14° ESE visible
05 Aug -1.7 00:10:16 10° W 00:11:48 16° SW 00:11:48 16° SW visible
05 Aug -2.5 23:17:33 10° W 23:20:18 25° SSW 23:21:11 22° S visible
